loading
DOY 203 | 2024-07-21T11:34:39Z

CZ-6A R/B, 60214

Orbit data source: Space-Track

CZ-6A R/B, 60214 is space debris in SSO originally from a launch on Thu, 04 Jul 2024 UTC launched from the Taiyaun Space Center, China (TSC). Debris objects in space refer to the collection of defunct objects orbiting the Earth. Examples of debris include non-operational satellites, rocket bodies, and fragments generated from explosions, collisions, or faulty payload assembly.

Loading next visibility...
Loading greatness...
CZ-6A R/B details
NORAD ID60214
COSPAR ID
2024-126D
Orbit
SSO
Last TLE update13 hours ago
Origin
Flag of CNCNSA (CN / PRC)
ManufacturerSAST
BusCZ-6A Stage 2
MotorYF-115
Mass~6,000 kg wet, ~6,000 kg dry
Launch date (UTC)
2024-07-04 (2 weeks ago)
Launch vehicleUnknown
Launch site
Taiyaun Space Center, China (TSC)
Object type
Payload
Rocket body
Debris
Radar Cross SectionLarge (>1 m²)
Predictive object data (real-time)
Latitude-19.07515°
Longitude-69.7791°
Altitude504.129 km
Speed7.641 km/s
Apparent Right ascension13h 29m 20s
Apparent Declination-29° 29' 48"
Sunlit
Object is in daylight
Predictive observer data (real-time)
Local Sidereal Time00:33:06
Azimuth307.821° NW
Elevation-74.475°
Doppler factor1
Orbital elements
Apogee603.539 km
Perigee493.306 km
Semi-major axis6,926.56 km
Eccentricity0.0079573
Inclination97.8182°
RAAN209.6318°
Arg. of periapsis335.2891°
True anomaly24.834°
Mean anomaly24.4531°
Mean motion3.76502 °/min
BSTAR0.00052614
Period95.62 mins
Definitive object data (Epoch: 2024-07-20T22:53:46.605Z)
Latitude-0.00004°
Longitude-73.02045°
Altitude504.348 km
Speed7.64 km/s
True Right ascension13h 58m 31s
True Declination0° 00' 00"
Sunlit
Object was in daylight at TLE epoch
TLE from 13 hours ago
0 CZ-6A R/B
1 60214U 24126D   24202.95401164  .00007952  00000-0  52614-3 0  9992
2 60214  97.8182 209.6318 0079573 335.2891  24.4531 15.05028207  2350
Epoch: 2024-07-20T22:53Z
No data available
Other satellites on launch #126 in the year 2024 (2024-07-04 UTC)

CZ-6A R/B Visibility forecast

Observer location: 39.9160978°, -105.1181434

CZ-6A R/B is not visible in the next 10 days
Span
Click to sort rows by Start time (UTC) header in descending order
Start Az.
Max El. time (UTC)
Max El. Az.
Max El.
End time (UTC)
End Az.